This is the latest recevied weather packets stored in our database for station/object W3BRL. If no packets are shown the sender has not sent any weather packets the latest 10 day(s).
| Time | Temp. | Humidity | Pressure | Rain* | Wind** | Luminosity | Snow |
|---|---|---|---|---|---|---|---|
| 1777730046 | 4.44° C | 99% | 1012.8 hPa | 0 mm | - | 252 W/m² | - |
| 1777729439 | 3.89° C | 99% | 1012.6 hPa | 0 mm | - | 312 W/m² | - |
| 1777729135 | 3.89° C | 98% | 1012.6 hPa | 0 mm | - | 229 W/m² | - |
| 1777728832 | 3.89° C | 99% | 1012.8 hPa | 0 mm | - | 164 W/m² | - |
| 1777728529 | 3.33° C | 99% | 1012.6 hPa | 0 mm | - | 138 W/m² | - |
| 1777728226 | 3.33° C | 99% | 1013 hPa | 0 mm | - | 104 W/m² | - |
| 1777727923 | 3.33° C | 99% | 1012.9 hPa | 0 mm | - | 69 W/m² | - |
| 1777727620 | 3.33° C | 99% | 1012.9 hPa | 0 mm | - | 61 W/m² | - |
| 1777725500 | 2.78° C | 99% | 1013.1 hPa | 0 mm | - | 111 W/m² | - |
| 1777724894 | 2.22° C | 99% | 1013.3 hPa | 0 mm | - | 139 W/m² | - |
| 1777724590 | 2.22° C | 99% | 1013.2 hPa | 0 mm | - | 115 W/m² | - |
| 1777724289 | 2.22° C | 99% | 1013.3 hPa | 0 mm | - | 104 W/m² | - |
| 1777723986 | 2.22° C | 98% | 1013.2 hPa | 0 mm | - | 109 W/m² | - |
| 1777723683 | 2.22° C | 99% | 1013.3 hPa | 0 mm | - | 133 W/m² | - |
| 1777723379 | 2.22° C | 98% | 1013.2 hPa | 0 mm | - | 152 W/m² | - |
| 1777722774 | 1.67° C | 98% | 1013.3 hPa | 0 mm | - | 63 W/m² | - |
| 1777722470 | 1.67° C | 98% | 1013.3 hPa | 0 mm | - | 95 W/m² | - |
| 1777722167 | 1.67° C | 99% | 1013.3 hPa | 0 mm | - | 71 W/m² | - |
| 1777721864 | 1.67° C | 98% | 1013.3 hPa | 0 mm | - | 63 W/m² | - |
| 1777721562 | 1.67° C | 98% | 1013.4 hPa | 0 mm | - | 52 W/m² | - |
| 1777721260 | 1.67° C | 98% | 1013.6 hPa | 0 mm | - | 47 W/m² | - |
| 1777720957 | 1.67° C | 98% | 1013.6 hPa | 0 mm | - | 39 W/m² | - |
| 1777720654 | 1.67° C | 98% | 1013.6 hPa | 0 mm | - | 31 W/m² | - |
| 1777720351 | 1.67° C | 98% | 1013.2 hPa | 0 mm | - | 29 W/m² | - |
| 1777720049 | 1.67° C | 98% | 1013.3 hPa | 0 mm | - | 22 W/m² | - |
* Rain latest hour (hover to see other rain measurements)
** Current wind speed in m/s (hover to see current wind gust speed)